Location: Munkebjergskolens Observatorium
(55.3864°N, 10.3987°E)
Time: 08:54:48
(UTC+02:00)

JY1SAT - Pass Details

Date: 10 April 2023
Orbit: 555 x 574 km, 97.6° (Epoch: 03 June)

Event Time Altitude Azimuth Distance (km) Brightness Sun altitude
Exits shadow 22:04:08 24° 150° (SSE) 1,189 ? -14.7°
Maximum altitude 22:06:27 69° 71° (ENE) 616 ? -15.0°
Drops below altitude 10° 22:10:31 10° 349° (N) 1,891 ? -15.4°
Sets 22:12:42 0° 347° (NNW) 2,798 ? -15.6°
